Location: Arrakis Observatory
(44.1122°N, 95.7153°W)
Time: 01:51:19
(UTC-05:00)

Amateur Radio Satellites - All Passes

Search period start: 03 September 2015 01:21
Search period end: 04 September 2015 01:21
Location: Arrakis Observatory, 44.1122°N, 95.7153°W

Satellite Date Start Highest point End Downlink Frequencies (MHz)
Time Altitude Azimuth
BEESAT 2 03 Sep 01:24:01 01:26:27 15° 248° (WSW) 01:28:44 435.950
SPROUT 03 Sep 01:31:00 01:34:52 31° 265° (W) 01:38:43 437.525
NANOSAT C BR1 03 Sep 01:31:41 01:35:31 32° 291° (WNW) 01:39:18 145.865
QB50P2 03 Sep 01:32:37 01:36:25 30° 291° (WNW) 01:40:08 145.880/145.840
GONETS M04 03 Sep 01:32:39 01:36:39 15° 76° (ENE) 01:41:15
SWISSCUBE 03 Sep 01:33:20 01:37:33 33° 68° (ENE) 01:41:49 437.505
DANDE 03 Sep 01:42:29 01:46:05 37° 291° (WNW) 01:50:48 436.750
QB50P1 03 Sep 01:46:43 01:50:09 23° 293° (WNW) 01:53:28 145.935-145.965
SO-50 03 Sep 02:06:11 02:10:56 56° 309° (NW) 02:15:50 436.795
ITUPSAT 1 03 Sep 02:12:26 02:17:11 71° 74° (ENE) 02:21:57 437.325
AIST 2 03 Sep 02:15:44 02:19:01 22° 246° (WSW) 02:22:10 435.215
Oscar 19 03 Sep 02:16:55 02:21:35 33° 95° (E) 02:26:17 437.125/150
TISAT 1 03 Sep 02:27:25 02:29:45 14° 271° (W) 02:31:56 437.305
BEESAT 03 Sep 02:44:11 02:48:53 56° 260° (W) 02:53:35 436.000
JAS-2 03 Sep 02:50:21 02:53:16 13° 80° (E) 02:56:28 435.910
STARS 03 Sep 02:52:51 02:55:59 20° 65° (ENE) 02:59:16 437.465
PCSat 03 Sep 03:00:39 03:05:55 52° 307° (NW) 03:11:15 145.827
VERMONT LUNAR 03 Sep 03:10:55 03:12:48 16° 157° (SSE) 03:14:44 437.305
SWISSCUBE 03 Sep 03:11:16 03:15:25 29° 265° (W) 03:19:32 437.505
KKS-1 03 Sep 03:16:14 03:20:34 54° 72° (ENE) 03:24:59 437.445
Gurwin Techsat 1B 03 Sep 03:17:03 03:21:58 38° 96° (E) 03:26:56 435.225
ITAMSAT 1 03 Sep 03:21:03 03:25:42 33° 96° (E) 03:30:24 435.822/435.867
RS-15 03 Sep 03:21:53 03:32:17 36° 253° (WSW) 03:42:37 29.354- 29.394
GONETS M04 03 Sep 03:23:29 03:32:07 75° 95° (E) 03:40:51
O/OREOS (USA 219) 03 Sep 03:44:09 03:47:13 18° 50° (NE) 03:50:22 437.305
MOZHAYETS 4 03 Sep 03:47:32 03:50:41 19° 65° (ENE) 03:53:56
SO-50 03 Sep 03:50:00 03:52:37 14° 332° (NNW) 03:55:08 436.795
ITUPSAT 1 03 Sep 03:53:13 03:55:39 13° 272° (W) 03:57:52 437.325
Oscar 19 03 Sep 03:56:16 04:00:56 33° 293° (WNW) 04:05:31 437.125/150
AO-7 03 Sep 04:06:55 04:12:54 22° 90° (E) 04:19:12 29.400- 29.500
HORYU 2 03 Sep 04:19:09 04:21:31 15° 89° (E) 04:24:05 437.375
STARS 03 Sep 04:27:55 04:32:09 45° 261° (W) 04:36:25 437.465
Cosmos 2499 03 Sep 04:28:18 04:36:31 55° 91° (E) 04:45:07 435.465 / 435.565
JAS-2 03 Sep 04:32:47 04:39:50 83° 103° (ESE) 04:45:59 435.910
PHONESAT 2.4 03 Sep 04:42:28 04:42:40 10° 150° (SSE) 04:43:00 2401.200-2431.200
VERMONT LUNAR 03 Sep 04:45:59 04:48:47 36° 172° (S) 04:51:33 437.305
PCSat 03 Sep 04:48:15 04:50:43 13° 330° (NNW) 04:53:01 145.827
KKS-1 03 Sep 04:54:48 04:57:36 16° 270° (W) 05:00:15 437.445
Gurwin Techsat 1B 03 Sep 04:57:15 05:01:52 30° 294° (WNW) 05:06:25 435.225
ITAMSAT 1 03 Sep 05:00:33 05:05:12 33° 293° (WNW) 05:09:47 435.822/435.867
O/OREOS (USA 219) 03 Sep 05:22:34 05:27:08 62° 250° (WSW) 05:31:39 437.305
GONETS M04 03 Sep 05:22:55 05:30:01 26° 298° (WNW) 05:36:54
MOZHAYETS 4 03 Sep 05:23:05 05:27:34 51° 261° (W) 05:32:04
CUBESAT XI-V 03 Sep 05:47:26 05:51:17 28° 68° (ENE) 05:55:14 437.345
HORYU 2 03 Sep 05:54:12 05:58:37 58° 287° (WNW) 06:02:58 437.375
AO-7 03 Sep 05:58:25 06:06:45 82° 290° (WNW) 06:15:02 29.400- 29.500
PHONESAT 2.4 03 Sep 06:16:54 06:19:57 30° 164° (SSE) 06:23:00 2401.200-2431.200
JAS-2 03 Sep 06:19:01 06:24:01 21° 304° (NW) 06:28:26 435.910
VERMONT LUNAR 03 Sep 06:22:09 06:24:55 35° 189° (S) 06:27:40 437.305
Cosmos 2499 03 Sep 06:22:13 06:30:06 37° 292° (WNW) 06:38:07 435.465 / 435.565
STRAND 1 03 Sep 06:38:25 06:42:41 28° 66° (ENE) 06:47:03 437.568
PRISM 03 Sep 06:44:10 06:46:56 18° 65° (ENE) 06:49:50 437.425
YUBILEINY 03 Sep 06:49:04 06:54:29 18° 55° (NE) 07:00:20 435.215
Cubesat XI-IV 03 Sep 06:59:01 07:03:30 28° 94° (E) 07:08:06 437.490
CUBESAT XI-V 03 Sep 07:24:31 07:28:40 32° 265° (W) 07:32:46 437.345
BRITE-PL 03 Sep 07:31:56 07:34:22 13° 85° (E) 07:37:08 437.365/2234.400
CUTE-I 03 Sep 07:42:40 07:47:59 67° 101° (ESE) 07:53:19 437.470
Cosmos 2491 03 Sep 07:43:20 07:47:22 15° 76° (ENE) 07:51:57 435.465 / 435.565
GOMX 1 03 Sep 07:48:57 07:49:48 10° 83° (E) 07:51:02 467.674
AO-7 03 Sep 07:52:33 07:58:30 22° 310° (NW) 08:04:10 29.400- 29.500
ISS 03 Sep 07:54:13 07:56:11 15° 134° (SE) 07:58:14 145.825
PHONESAT 2.4 03 Sep 07:54:13 07:57:31 45° 181° (S) 08:00:47 2401.200-2431.200
VERMONT LUNAR 03 Sep 07:59:06 08:00:52 15° 204° (SSW) 08:02:36 437.305
STRAND 1 03 Sep 08:17:02 08:21:46 38° 263° (W) 08:26:31 437.568
PRISM 03 Sep 08:18:13 08:22:06 41° 261° (W) 08:25:59 437.425
HO-68 03 Sep 08:20:54 08:23:44 13° 84° (E) 08:27:03 435.675
Cubesat XI-IV 03 Sep 08:38:47 08:43:46 41° 291° (WNW) 08:48:43 437.490
YUBILEINY 03 Sep 08:44:17 08:53:10 78° 80° (E) 09:01:59 435.215
AIST 1 03 Sep 08:48:13 08:52:28 77° 279° (W) 08:56:44
SO-50 03 Sep 08:56:10 09:00:37 32° 43° (NE) 09:05:02 436.795
Cosmos 2504 03 Sep 09:04:29 09:09:21 17° 55° (NE) 09:14:31 435.465 / 435.565
CUTE 1.7 + AOD 2 03 Sep 09:06:34 09:09:34 19° 91° (E) 09:12:41 437.475
BRITE-PL 03 Sep 09:08:03 09:13:39 88° 99° (E) 09:19:23 437.365/2234.400
CANX-2 03 Sep 09:20:30 09:24:13 30° 95° (E) 09:27:58 2200.000
GOMX 1 03 Sep 09:23:22 09:28:53 77° 101° (E) 09:34:23 467.674
CUTE-I 03 Sep 09:23:55 09:27:36 19° 299° (WNW) 09:31:07 437.470
DOVE 4 03 Sep 09:23:57 09:29:07 49° 98° (E) 09:34:13 437.250
ISS 03 Sep 09:29:00 09:32:16 75° 330° (NNW) 09:35:32 145.825
PHONESAT 2.4 03 Sep 09:32:05 09:35:03 28° 197° (SSW) 09:38:00 2401.200-2431.200
Cosmos 2491 03 Sep 09:34:12 09:42:51 75° 95° (E) 09:51:34 435.465 / 435.565
SEEDS 03 Sep 09:37:01 09:40:47 32° 96° (E) 09:44:33 437.485
CUSAT 1 03 Sep 09:47:42 09:53:37 24° 61° (ENE) 10:00:03 437.405
CINEMA 3 03 Sep 09:49:53 09:54:32 38° 96° (E) 09:59:04 145.822/145.860
COMPASS 1 03 Sep 09:54:14 09:58:08 39° 97° (E) 10:02:01 437.405
UNISAT 6 03 Sep 09:55:32 09:58:52 20° 64° (ENE) 10:02:19 437.425
Oscar 11 03 Sep 09:58:17 10:01:03 17° 90° (E) 10:03:57 145.826/435.025
AAUSAT CUBESAT 2 03 Sep 10:01:58 10:05:52 40° 97° (E) 10:09:46 437.432
AUBIESAT-1 03 Sep 10:03:52 10:07:41 25° 62° (ENE) 10:11:27 437.475
PCSat 03 Sep 10:03:52 10:08:40 31° 46° (NE) 10:13:30 145.827
HO-68 03 Sep 10:05:38 10:12:52 74° 104° (ESE) 10:20:04 435.675
DELFI C3 03 Sep 10:08:02 10:09:47 13° 89° (E) 10:11:41 145.870
M-CUBED/EXP-1 PRIME 03 Sep 10:11:24 10:15:40 34° 64° (ENE) 10:19:53 437.505
TIGRISAT 03 Sep 10:21:56 10:26:06 33° 69° (ENE) 10:30:21 435.000
DUCHIFAT 1 03 Sep 10:32:44 10:35:07 15° 63° (ENE) 10:37:41 145.980
POLYITAN 1 03 Sep 10:33:07 10:35:45 17° 64° (ENE) 10:38:32 437.675
POPSAT HIP 1 03 Sep 10:34:34 10:37:12 17° 64° (ENE) 10:39:59 437.405
DANDE 03 Sep 10:35:03 10:41:50 34° 68° (ENE) 10:49:26 436.750
SO-50 03 Sep 10:36:38 10:41:17 41° 242° (WSW) 10:45:47 436.795
ANTELSAT 03 Sep 10:39:48 10:44:20 51° 72° (ENE) 10:48:56 437.575/2403.000
CUTE 1.7 + AOD 2 03 Sep 10:41:43 10:45:41 38° 289° (WNW) 10:49:34 437.475
YUBILEINY 03 Sep 10:42:28 10:49:08 24° 280° (W) 10:55:27 435.215
ZACube-1 03 Sep 10:46:36 10:50:46 37° 96° (E) 10:54:50 437.345
BRITE-PL 03 Sep 10:48:12 10:51:31 16° 299° (WNW) 10:54:40 437.365/2234.400
NANOSAT C BR1 03 Sep 10:50:14 10:53:33 23° 67° (ENE) 10:56:59 145.865
FUNcube-1 03 Sep 10:50:40 10:54:52 39° 97° (E) 10:58:58 145.935
QB50P2 03 Sep 10:51:21 10:54:48 25° 67° (ENE) 10:58:21 145.880/145.840
Cosmos 2504 03 Sep 10:54:56 11:03:28 75° 79° (E) 11:11:26 435.465 / 435.565
CANX-2 03 Sep 10:56:33 11:00:04 25° 292° (WNW) 11:03:29 2200.000
CUBEBUG 2 03 Sep 10:58:28 11:03:11 84° 103° (ESE) 11:07:43 437.445
UWE-3 03 Sep 10:59:35 11:04:10 67° 100° (E) 11:08:35 435.000/436.395/437.385
DOVE 4 03 Sep 11:02:15 11:06:33 25° 295° (WNW) 11:10:43 437.250
GOMX 1 03 Sep 11:02:48 11:06:26 18° 298° (WNW) 11:09:52 467.674
QB50P1 03 Sep 11:04:35 11:08:22 32° 69° (ENE) 11:12:14 145.935-145.965
ISS 03 Sep 11:06:19 11:09:04 24° 349° (N) 11:11:48 145.825
HUMSAT D 03 Sep 11:08:48 11:12:15 24° 93° (E) 11:15:43 437.325/437.525
SEEDS 03 Sep 11:13:04 11:16:26 23° 292° (WNW) 11:19:42 437.485
CINEMA 3 03 Sep 11:27:20 11:31:33 27° 294° (WNW) 11:35:36 145.822/145.860
CUSAT 1 03 Sep 11:29:12 11:37:08 88° 261° (W) 11:45:23 437.405
COMPASS 1 03 Sep 11:30:30 11:33:33 20° 294° (WNW) 11:36:29 437.405
DX 1 03 Sep 11:30:33 11:34:03 23° 94° (E) 11:37:37 434.975-435.025
UNISAT 6 03 Sep 11:30:43 11:35:18 51° 261° (W) 11:39:54 437.425
Oscar 11 03 Sep 11:33:23 11:37:32 46° 288° (WNW) 11:41:38 145.826/435.025
Cosmos 2491 03 Sep 11:33:40 11:40:46 26° 298° (WNW) 11:47:38 435.465 / 435.565
AUBIESAT-1 03 Sep 11:37:40 11:42:10 42° 257° (WSW) 11:46:33 437.475
AAUSAT CUBESAT 2 03 Sep 11:38:13 11:41:13 19° 294° (WNW) 11:44:05 437.432
UKube-1 03 Sep 11:38:35 11:42:10 25° 94° (E) 11:45:49 .
DELFI C3 03 Sep 11:41:19 11:45:13 53° 287° (WNW) 11:49:05 145.870
M-CUBED/EXP-1 PRIME 03 Sep 11:46:08 11:50:24 31° 260° (W) 11:54:33 437.505
PCSat 03 Sep 11:47:06 11:52:17 46° 246° (WSW) 11:57:25 145.827
HO-68 03 Sep 11:54:20 12:00:01 25° 303° (WNW) 12:05:30 435.675
CUBEBUG 1 03 Sep 11:56:10 11:59:10 18° 91° (E) 12:02:18 437.445
TIGRISAT 03 Sep 11:58:47 12:02:52 28° 266° (W) 12:06:55 435.000
50 SAT 03 Sep 11:59:58 12:03:32 35° 97° (E) 12:07:05 437.505
ESTCUBE 1 03 Sep 12:01:16 12:04:58 25° 94° (E) 12:08:44 437.505/2401.250
BUGSAT 1 03 Sep 12:01:19 12:05:24 80° 76° (ENE) 12:09:34 437.445
AISAT 03 Sep 12:03:44 12:07:51 35° 97° (E) 12:11:59 437.250
DUCHIFAT 1 03 Sep 12:06:20 12:10:30 56° 260° (W) 12:14:43 145.980
POLYITAN 1 03 Sep 12:07:05 12:11:16 52° 260° (W) 12:15:30 437.675
POPSAT HIP 1 03 Sep 12:08:32 12:12:42 51° 260° (W) 12:16:54 437.405
DANDE 03 Sep 12:17:43 12:25:22 62° 265° (W) 12:33:43 436.750
ANTELSAT 03 Sep 12:18:05 12:21:26 18° 270° (W) 12:24:39 437.575/2403.000
ZACube-1 03 Sep 12:23:19 12:26:56 23° 294° (WNW) 12:30:22 437.345
NANOSAT C BR1 03 Sep 12:25:19 12:29:13 34° 263° (W) 12:33:08 145.865
QB50P2 03 Sep 12:26:43 12:30:34 32° 264° (W) 12:34:25 145.880/145.840
FUNcube-1 03 Sep 12:27:27 12:30:56 22° 294° (WNW) 12:34:17 145.935
VELOX 1 03 Sep 12:30:52 12:35:20 65° 101° (ESE) 12:39:46 145.980
CUBEBUG 2 03 Sep 12:37:10 12:39:12 12° 300° (WNW) 12:41:01 437.445
UWE-3 03 Sep 12:37:34 12:40:09 15° 298° (WNW) 12:42:32 435.000/436.395/437.385
QB50P1 03 Sep 12:40:48 12:44:17 24° 267° (W) 12:47:45 145.935-145.965
ISS 03 Sep 12:43:29 12:46:11 23° 9° (N) 12:48:53 145.825
HUMSAT D 03 Sep 12:44:15 12:48:01 31° 291° (WNW) 12:51:40 437.325/437.525
Cosmos 2504 03 Sep 12:48:22 12:54:50 24° 280° (W) 13:00:45 435.465 / 435.565
Gurwin Techsat 1B 03 Sep 13:04:29 13:05:39 11° 56° (NE) 13:07:05 435.225
JAS-2 03 Sep 13:05:49 13:08:02 12° 48° (NE) 13:10:41 435.910
DX 1 03 Sep 13:06:22 13:10:23 35° 291° (WNW) 13:14:22 434.975-435.025
CUSAT 1 03 Sep 13:13:17 13:18:57 21° 276° (W) 13:24:22 437.405
UKube-1 03 Sep 13:14:26 13:18:20 32° 291° (WNW) 13:22:10 .
SPROUT 03 Sep 13:15:35 13:19:40 39° 98° (E) 13:23:45 437.525
CUBEBUG 1 03 Sep 13:31:33 13:35:47 46° 288° (WNW) 13:40:01 437.445
GONETS M04 03 Sep 13:31:58 13:40:06 41° 70° (ENE) 13:48:21
Oscar 19 03 Sep 13:35:02 13:40:04 56° 72° (ENE) 13:45:11 437.125/150
50 SAT 03 Sep 13:35:05 13:37:50 18° 294° (WNW) 13:40:29 437.505
ESTCUBE 1 03 Sep 13:37:49 13:41:54 34° 291° (WNW) 13:45:57 437.505/2401.250
AISAT 03 Sep 13:40:34 13:44:16 25° 293° (WNW) 13:47:53 437.250
DANDE 03 Sep 14:04:01 14:07:32 13° 279° (W) 14:10:32 436.750
TISAT 1 03 Sep 14:07:48 14:12:06 82° 103° (ESE) 14:16:22 437.305
VELOX 1 03 Sep 14:08:50 14:11:24 15° 298° (WNW) 14:13:48 145.980
ITUPSAT 1 03 Sep 14:12:45 14:15:36 16° 89° (E) 14:18:38 437.325
Cosmos 2499 03 Sep 14:18:51 14:25:11 23° 59° (ENE) 14:31:31 435.465 / 435.565
ISS 03 Sep 14:19:46 14:23:01 67° 29° (NNE) 14:26:16 145.825
Gurwin Techsat 1B 03 Sep 14:39:30 14:44:46 70° 73° (ENE) 14:50:05 435.225
ITAMSAT 1 03 Sep 14:40:23 14:45:26 59° 72° (ENE) 14:50:33 435.822/435.867
BEESAT 03 Sep 14:43:01 14:47:17 32° 96° (E) 14:51:33 436.000
JAS-2 03 Sep 14:44:07 14:51:27 49° 67° (ENE) 14:58:54 435.910
SPROUT 03 Sep 14:52:11 14:55:31 21° 294° (WNW) 14:58:45 437.525
BEESAT 3 03 Sep 15:00:15 15:04:14 59° 120° (ESE) 15:08:16 437.485
AO-7 03 Sep 15:07:16 15:14:40 38° 59° (ENE) 15:22:10 29.400- 29.500
SWISSCUBE 03 Sep 15:09:08 15:13:52 64° 101° (ESE) 15:18:36 437.505
Oscar 19 03 Sep 15:16:05 15:19:51 19° 270° (W) 15:23:29 437.125/150
BEESAT 2 03 Sep 15:16:46 15:20:49 66° 122° (ESE) 15:24:55 435.950
HORYU 2 03 Sep 15:18:47 15:21:44 18° 64° (ENE) 15:24:49 437.375
GONETS M04 03 Sep 15:28:49 15:37:11 49° 271° (W) 15:45:28
RS-15 03 Sep 15:35:10 15:44:43 39° 108° (ESE) 15:54:49 29.354- 29.394
TISAT 1 03 Sep 15:45:53 15:47:16 11° 299° (WNW) 15:48:27 437.305
ITUPSAT 1 03 Sep 15:49:15 15:53:57 59° 288° (WNW) 15:58:37 437.325
ISS 03 Sep 15:56:54 15:59:09 17° 225° (SW) 16:01:20 145.825
Cosmos 2499 03 Sep 16:11:00 16:19:43 85° 262° (W) 16:27:46 435.465 / 435.565
AIST 2 03 Sep 16:13:44 16:17:51 52° 120° (ESE) 16:22:01 435.215
STARS 03 Sep 16:16:09 16:20:01 29° 95° (E) 16:23:54 437.465
BEESAT 03 Sep 16:20:55 16:25:04 30° 293° (WNW) 16:29:08 436.000
ITAMSAT 1 03 Sep 16:21:47 16:25:24 18° 270° (W) 16:28:52 435.822/435.867
Gurwin Techsat 1B 03 Sep 16:22:02 16:25:22 16° 272° (W) 16:28:29 435.225
JAS-2 03 Sep 16:29:17 16:36:34 41° 266° (W) 16:43:51 435.910
BEESAT 3 03 Sep 16:39:31 16:42:31 19° 320° (NW) 16:45:27 437.485
KKS-1 03 Sep 16:42:07 16:46:39 90° 285° (WNW) 16:51:08 437.445
SWISSCUBE 03 Sep 16:48:14 16:51:16 17° 298° (WNW) 16:54:08 437.505
HORYU 2 03 Sep 16:53:36 16:58:00 52° 260° (W) 17:02:26 437.375
BEESAT 2 03 Sep 16:56:23 16:59:17 18° 321° (NW) 17:02:08 435.950
AO-7 03 Sep 16:59:04 17:07:15 56° 258° (WSW) 17:15:23 29.400- 29.500
MOZHAYETS 4 03 Sep 17:16:44 17:20:51 33° 95° (E) 17:24:59
CUTE-I 03 Sep 17:28:20 17:31:53 19° 61° (ENE) 17:35:35 437.470
RS-15 03 Sep 17:45:36 17:56:32 67° 312° (NW) 18:07:59 29.354- 29.394
STARS 03 Sep 17:52:32 17:56:26 29° 292° (WNW) 18:00:13 437.465
AIST 2 03 Sep 17:53:21 17:56:43 22° 319° (NW) 18:00:02 435.215
O/OREOS (USA 219) 03 Sep 17:59:50 18:01:38 12° 99° (E) 18:03:40 437.305
Cosmos 2499 03 Sep 18:06:15 18:11:37 18° 283° (WNW) 18:16:21 435.465 / 435.565
KKS-1 03 Sep 18:21:15 18:22:38 11° 300° (WNW) 18:23:47 437.445
Cubesat XI-IV 03 Sep 18:22:21 18:27:29 53° 71° (ENE) 18:32:41 437.490
BRITE-PL 03 Sep 18:45:00 18:47:22 14° 60° (ENE) 18:50:01 437.365/2234.400
HO-68 03 Sep 18:52:28 18:55:51 14° 49° (NE) 18:59:33 435.675
AIST 1 03 Sep 18:53:56 18:57:44 29° 73° (ENE) 19:01:35
MOZHAYETS 4 03 Sep 18:54:07 18:57:59 27° 293° (WNW) 19:01:46
GOMX 1 03 Sep 18:58:28 19:00:17 12° 58° (ENE) 19:02:21 467.674
CUTE-I 03 Sep 19:06:13 19:11:30 66° 258° (WSW) 19:16:49 437.470
CUBESAT XI-V 03 Sep 19:18:55 19:23:30 55° 100° (E) 19:28:05 437.345
O/OREOS (USA 219) 03 Sep 19:35:58 19:40:30 70° 295° (WNW) 19:45:06 437.305
Cosmos 2491 03 Sep 19:42:49 19:50:54 41° 70° (ENE) 19:59:06 435.465 / 435.565
YUBILEINY 03 Sep 19:54:27 19:59:32 18° 77° (ENE) 20:05:07 435.215
PRISM 03 Sep 19:59:03 20:02:18 23° 94° (E) 20:05:37 437.425
CUTE 1.7 + AOD 2 03 Sep 20:01:12 20:04:05 18° 66° (ENE) 20:07:05 437.475
RS-15 03 Sep 20:02:06 20:11:41 30° 342° (NNW) 20:21:32 29.354- 29.394
Cubesat XI-IV 03 Sep 20:03:53 20:07:58 21° 269° (W) 20:11:55 437.490
CANX-2 03 Sep 20:14:54 20:18:30 27° 69° (ENE) 20:22:10 2200.000
BRITE-PL 03 Sep 20:20:48 20:25:15 71° 259° (W) 20:30:06 437.365/2234.400
CUBEBUG 2 03 Sep 20:25:01 20:26:12 11° 59° (ENE) 20:27:38 437.445
STRAND 1 03 Sep 20:25:27 20:30:32 64° 101° (ESE) 20:35:37 437.568
SEEDS 03 Sep 20:30:28 20:34:05 28° 69° (ENE) 20:37:46 437.485
DOVE 4 03 Sep 20:30:43 20:35:19 54° 72° (ENE) 20:40:15 437.250
AIST 1 03 Sep 20:31:42 20:35:18 25° 270° (W) 20:38:49
GOMX 1 03 Sep 20:32:59 20:37:36 90° 58° (ENE) 20:42:37 467.674
HO-68 03 Sep 20:35:19 20:42:21 64° 69° (ENE) 20:49:29 435.675
COMPASS 1 03 Sep 20:46:44 20:50:29 33° 70° (ENE) 20:54:17 437.405
CINEMA 3 03 Sep 20:52:38 20:57:05 41° 70° (ENE) 21:01:45 145.822/145.860
AAUSAT CUBESAT 2 03 Sep 20:54:01 20:57:45 33° 70° (ENE) 21:01:32 437.432
Oscar 11 03 Sep 20:54:51 20:57:38 17° 65° (ENE) 21:00:34 145.826/435.025
CUBESAT XI-V 03 Sep 20:57:24 21:00:33 18° 296° (WNW) 21:03:35 437.345
DELFI C3 03 Sep 20:57:47 20:58:45 11° 62° (ENE) 20:59:56 145.870
O/OREOS (USA 219) 03 Sep 21:19:54 21:20:55 10° 317° (NW) 21:21:45 437.305
PRISM 03 Sep 21:34:06 21:37:47 32° 291° (WNW) 21:41:26 437.425
CUTE 1.7 + AOD 2 03 Sep 21:35:34 21:39:42 45° 262° (W) 21:43:49 437.475
Cosmos 2491 03 Sep 21:39:41 21:47:59 48° 271° (W) 21:56:13 435.465 / 435.565
BEESAT 3 03 Sep 21:41:36 21:42:23 11° 31° (NNE) 21:43:19 437.485
ZACube-1 03 Sep 21:43:36 21:47:46 36° 70° (ENE) 21:52:01 437.345
YUBILEINY 03 Sep 21:46:22 21:55:09 85° 97° (E) 22:04:03 435.215
FUNcube-1 03 Sep 21:47:23 21:51:36 38° 70° (ENE) 21:55:53 145.935
CANX-2 03 Sep 21:50:36 21:54:22 29° 265° (W) 21:58:05 2200.000
CUBEBUG 2 03 Sep 21:57:27 22:02:08 82° 76° (ENE) 22:06:56 437.445
UWE-3 03 Sep 21:57:31 22:02:06 65° 74° (ENE) 22:06:47 435.000/436.395/437.385
BEESAT 2 03 Sep 21:58:12 21:59:33 11° 32° (NNE) 22:01:01 435.950
HUMSAT D 03 Sep 22:01:58 22:05:19 23° 67° (ENE) 22:08:45 437.325/437.525
STRAND 1 03 Sep 22:05:47 22:09:18 19° 298° (WNW) 22:12:40 437.568
SEEDS 03 Sep 22:06:12 22:09:51 27° 266° (W) 22:13:27 437.485
DOVE 4 03 Sep 22:10:12 22:13:32 18° 272° (W) 22:16:51 437.250
RS-15 03 Sep 22:19:07 22:28:47 30° 16° (NNE) 22:38:55 29.354- 29.394
COMPASS 1 03 Sep 22:22:50 22:26:13 23° 267° (W) 22:29:31 437.405
HO-68 03 Sep 22:24:45 22:30:40 26° 268° (W) 22:36:25 435.675
DX 1 03 Sep 22:27:41 22:31:12 25° 67° (ENE) 22:34:49 434.975-435.025
Oscar 11 03 Sep 22:29:14 22:33:28 50° 261° (W) 22:37:43 145.826/435.025
DELFI C3 03 Sep 22:29:14 22:33:17 75° 258° (WSW) 22:37:20 145.870
AAUSAT CUBESAT 2 03 Sep 22:30:05 22:33:26 22° 267° (W) 22:36:41 437.432
CINEMA 3 03 Sep 22:30:31 22:34:27 24° 269° (W) 22:38:24 145.822/145.860
UKube-1 03 Sep 22:34:51 22:38:27 27° 67° (ENE) 22:42:07 .
50 SAT 03 Sep 22:44:51 22:48:06 25° 69° (ENE) 22:51:25 437.505
CUBEBUG 1 03 Sep 22:54:04 22:57:03 19° 65° (ENE) 23:00:10 437.445
AIST 2 03 Sep 22:57:36 22:58:36 11° 30° (NNE) 22:59:43 435.215
ESTCUBE 1 03 Sep 23:02:24 23:06:11 28° 68° (ENE) 23:10:03 437.505/2401.250
AISAT 03 Sep 23:02:49 23:06:52 38° 70° (ENE) 23:11:00 437.250
BEESAT 3 03 Sep 23:17:15 23:21:14 56° 52° (NE) 23:25:10 437.485
ZACube-1 03 Sep 23:20:25 23:24:13 25° 267° (W) 23:27:58 437.345
UNISAT 6 03 Sep 23:21:33 23:25:33 30° 95° (E) 23:29:30 437.425
FUNcube-1 03 Sep 23:24:21 23:28:02 23° 268° (W) 23:31:41 145.935
Cosmos 2504 03 Sep 23:25:43 23:33:38 55° 90° (E) 23:41:59 435.465 / 435.565
M-CUBED/EXP-1 PRIME 03 Sep 23:26:55 23:29:11 15° 94° (E) 23:31:30 437.505
VELOX 1 03 Sep 23:29:39 23:34:01 69° 75° (ENE) 23:38:26 145.980
BEESAT 2 03 Sep 23:34:23 23:38:27 64° 53° (NE) 23:42:26 435.950
UWE-3 03 Sep 23:36:32 23:39:08 14° 273° (W) 23:41:33 435.000/436.395/437.385
HUMSAT D 03 Sep 23:36:50 23:40:51 36° 263° (W) 23:44:52 437.325/437.525
CUBEBUG 2 03 Sep 23:37:55 23:39:33 11° 275° (W) 23:40:53 437.445
BUGSAT 1 03 Sep 23:44:22 23:45:23 11° 87° (E) 23:46:41 437.445
YUBILEINY 03 Sep 23:46:31 23:53:20 23° 300° (WNW) 23:59:51 435.215
TIGRISAT 03 Sep 23:48:23 23:52:53 55° 100° (E) 23:57:15 435.000
DUCHIFAT 1 03 Sep 23:50:04 23:53:16 21° 92° (E) 23:56:31 145.980
DANDE 03 Sep 23:50:35 23:53:11 17° 82° (E) 23:56:26 436.750
POLYITAN 1 03 Sep 23:51:24 23:54:48 23° 93° (E) 23:58:15 437.675
POPSAT HIP 1 03 Sep 23:52:36 23:55:59 23° 93° (E) 23:59:27 437.405
DX 1 04 Sep 00:03:25 00:07:20 32° 264° (W) 00:11:15 434.975-435.025
ANTELSAT 04 Sep 00:06:55 00:11:31 90° 113° (ESE) 00:15:56 437.575/2403.000
NANOSAT C BR1 04 Sep 00:08:23 00:12:16 33° 96° (E) 00:16:09 145.865
QB50P2 04 Sep 00:10:05 00:14:03 36° 97° (E) 00:18:02 145.880/145.840
UKube-1 04 Sep 00:10:40 00:14:29 30° 264° (W) 00:18:18 .
SPROUT 04 Sep 00:11:03 00:14:59 36° 70° (ENE) 00:18:59 437.525
50 SAT 04 Sep 00:19:10 00:22:33 26° 265° (W) 00:25:54 437.505
QB50P1 04 Sep 00:23:21 00:27:32 49° 99° (E) 00:31:41 145.935-145.965
CUBEBUG 1 04 Sep 00:28:58 00:33:07 45° 262° (W) 00:37:18 437.445
RS-15 04 Sep 00:32:36 00:44:14 63° 46° (NE) 00:56:21 29.354- 29.394
AIST 2 04 Sep 00:34:01 00:38:09 54° 51° (NE) 00:42:12 435.215
CUSAT 1 04 Sep 00:37:44 00:42:02 89° 290° (WNW) 00:47:51 437.405
ESTCUBE 1 04 Sep 00:39:01 00:43:00 30° 265° (W) 00:46:57 437.505/2401.250
AISAT 04 Sep 00:40:07 00:43:36 22° 267° (W) 00:47:00 437.250
SWISSCUBE 04 Sep 00:43:07 00:44:35 12° 59° (ENE) 00:46:16 437.505
PCSat 04 Sep 00:48:42 00:52:11 18° 107° (ESE) 00:55:53 145.827
AUBIESAT-1 04 Sep 00:51:41 00:55:32 60° 292° (WNW) 00:59:03 437.475
SO-50 04 Sep 00:51:44 00:56:19 47° 118° (ESE) 01:01:04 436.795
BEESAT 3 04 Sep 00:56:25 00:58:45 15° 249° (WSW) 01:00:55 437.485
UNISAT 6 04 Sep 00:58:21 01:02:16 28° 292° (WNW) 01:06:03 437.425
M-CUBED/EXP-1 PRIME 04 Sep 01:00:36 01:04:19 40° 295° (WNW) 01:07:43 437.505
TISAT 1 04 Sep 01:00:58 01:05:10 73° 75° (ENE) 01:09:25 437.305
VELOX 1 04 Sep 01:09:19 01:11:08 12° 273° (W) 01:12:43 145.980
BEESAT 2 04 Sep 01:14:01 01:16:01 13° 249° (WSW) 01:17:50 435.950
